Location: Newark
(30.1000°N, 109.4667°E)
Time: 13:29:35
(UTC+00:00)

Vanguard 1 Rocket - Pass Details

Date: 23 February 2020
Orbit: 650 x 4226 km, 34.3° (Epoch: 08 April)

Event Time Altitude Azimuth Distance (km) Brightness Sun altitude
Exits shadow 20:41:28 31° 59° (ENE) 1,229 8.4 -33.8°
Drops below altitude 10° 20:43:50 10° 75° (ENE) 2,079 10.1 -33.3°
Sets 20:45:58 0° 80° (E) 2,951 11.1 -32.8°
